RS-38S
1 57189U 23091Z   26249.84110214  .00011764  00000-0  31270-3 0  9994
2 57189  97.5023 321.0724 0007968 132.1509 228.0414 15.38377291177235
SONATE-2
1 59112U 24043Q   26249.37978690  .00034995  00000-0  35618-3 0  9999
2 59112  97.5609  45.1937 0005139 257.1776 102.8909 15.65061047140568
GRBBeta
1 60237U 24128C   26249.44134172  .00001611  00000-0  12019-3 0  9999
2 60237  61.9884 291.0766 0028915 152.5569 207.7058 15.07132526118512
Curium One
1 60242U 24128H   26249.59014743  .00003381  00000-0  19872-3 0  9992
2 60242  61.9776 277.2258 0027804 147.1358 213.1474 15.13534511118770
ROBUSTA-3A
1 60243U 24128J   26249.80043500  .00003086  00000-0  18682-3 0  9990
2 60243  61.9852 279.4144 0029756 144.4934 215.8150 15.12647381118760
CatSat
1 60246U 24125J   26249.58782108  .00069786  00000-0  57652-3 0  9998
2 60246  97.1984 103.7601 0014898 229.2138 130.7833 15.69948830120116
AO-123
1 61781U 24199AY  26249.84727208  .00005457  00000-0  15388-3 0  9998
2 61781  97.2871 117.7883 0014055  22.9307 337.2562 15.36736591146467
LASARsat
1 62391U 24247Q   26249.17609280  .00027583  00000-0  46136-3 0  9994
2 62391  44.9720 165.3960 0007905 145.0682 215.0730 15.51420050 95876
CroCube
1 62394U 24247T   26249.76120208  .00034678  00000-0  52192-3 0  9992
2 62394  44.9692 157.7993 0008561 159.7020 200.4214 15.54235204 96015
JINJUSat 1B
1 63210U 25052A   26249.64778503  .00011037  00000-0  31862-3 0  9994
2 63210  97.3883 146.6011 0004517 126.5721 233.5939 15.35838439 82599
NUSHSAT 1
1 63211U 25052B   26249.67385698  .00014523  00000-0  37841-3 0  9993
2 63211  97.3854 147.5109 0004228 126.5140 233.6495 15.38958310 82660
TEVEL2-4
1 63213U 25052D   26249.68204811  .00012660  00000-0  34881-3 0  9994
2 63213  97.3777 146.3145 0003510 134.2824 225.8708 15.37266113 82629
TEVEL2-5
1 63214U 25052E   26249.64777410  .00012504  00000-0  34701-3 0  9999
2 63214  97.3774 146.2023 0003319 136.3293 223.8214 15.37045134 82618
TEVEL2-6
1 63215U 25052F   26249.66193786  .00012380  00000-0  34395-3 0  9991
2 63215  97.3777 146.2016 0003358 137.1671 222.9836 15.37013401 82618
TEVEL2-1
1 63217U 25052H   26249.65671395  .00012063  00000-0  34208-3 0  9990
2 63217  97.3751 145.7173 0002981 147.4115 212.7314 15.36380406 82594
TEVEL2-3
1 63218U 25052J   26249.64788459  .00011950  00000-0  33808-3 0  9999
2 63218  97.3759 145.7427 0002795 145.2842 214.8585 15.36455861 82592
TEVEL2-2
1 63219U 25052K   26249.65640373  .00012033  00000-0  34108-3 0  9990
2 63219  97.3752 145.7214 0003034 149.5900 210.5520 15.36394261 82597
TEVEL2-9
1 63237U 25052AD  26249.67924160  .00010629  00000-0  32327-3 0  9991
2 63237  97.3815 144.9300 0005090 189.9608 170.1535 15.34199619 82518
TEVEL2-7
1 63238U 25052AE  26249.67218700  .00010380  00000-0  31934-3 0  9995
2 63238  97.3815 144.8008 0005023 191.0755 169.0378 15.33841201 82507
TEVEL2-8
1 63239U 25052AF  26249.68113705  .00009947  00000-0  30625-3 0  9999
2 63239  97.3816 144.7846 0005064 191.3128 168.8001 15.33830941 82509
SPIRONE
1 66657U 25274H   26249.78142323  .00000815  00000-0  82077-4 0  9995
2 66657  97.7474 177.9180 0013565 100.8104 259.4644 14.93818042 42401
K-HERO
1 66660U 25274L   26249.76391595  .00001251  00000-0  12180-3 0  9996
2 66660  97.7482 178.1208 0015430 104.9604 255.3326 14.94215201 42413
SNUGLITE-III DURI
1 66661U 25274M   26249.75038491  .00001289  00000-0  12532-3 0  9991
2 66661  97.7481 178.1281 0016002 106.2013 254.0970 14.94223460 42416
SAKHACUBE-CHOLBON
1 67290U 25313AU  26249.42877014  .00005877  00000-0  22976-3 0  9990
2 67290  97.3871 323.4949 0010429  73.5509 286.6875 15.26190951 38361
RS95S (QMR-KWT-2)
1 67291U 25313AV  26249.45722083  .00008206  00000-0  30086-3 0  9999
2 67291  97.3870 323.9044 0009753  71.6868 288.5432 15.28199119 38397
Ten-Koh2
1 68261U 25241B   26249.17956418  .00002964  00000-0  13136-3 0  9999
2 68261  51.6649 293.8893 0007754  51.5374 308.6299 15.24792508 27263
JACK-002
1 68417U 26067B   26249.86660237  .00004249  00000-0  19890-3 0  9997
2 68417  97.4644 207.5342 0002669  41.1614 318.9822 15.20272214 24358
DISCO 2
1 68431U 26067R   26249.43848077  .00005201  00000-0  24359-3 0  9991
2 68431  97.4676 207.1083 0004155  79.8227 280.3476 15.20149465 24287
HADES-SA (SpinnyONE)
1 68446U 26067AG  26249.83360957  .00013377  00000-0  59517-3 0  9994
2 68446  97.4465 207.0879 0008040 134.5130 225.6764 15.21578562 24333
PARUS-6U1
1 68456U 26067AS  26249.86624865  .00003398  00000-0  16916-3 0  9997
2 68456  97.4633 207.0520 0006901 127.5665 232.6196 15.18257349 24322
SAL-E
1 68458U 26067AU  26249.84081051  .00005201  00000-0  25323-3 0  9998
2 68458  97.4553 206.9293 0006957 134.7161 225.4641 15.18783593 24322
FSI-SAT 2
1 68792U 26088A   26249.35237062  .00003044  00000-0  20487-3 0  9992
2 68792  97.5180  36.6595 0014123 184.4652 175.6452 15.07382093 20515
OrigamiSat 2
1 68795U 26088D   26249.36303896  .00008328  00000-0  50988-3 0  9994
2 68795  97.5164  37.1026 0015153 156.7389 203.4530 15.10355099 20548
ARICA 2
1 68796U 26088E   26249.87206094  .00002755  00000-0  17785-3 0  9999
2 68796  97.5171  37.4832 0016143 153.6201 206.5853 15.08984712 20611
WASEDA-SAT-ZERO-II
1 68797U 26088F   26249.84974950  .00003814  00000-0  24170-3 0  9993
2 68797  97.5159  37.5069 0015878 153.6592 206.5448 15.09429717 20618
MANGARO-II-Piscus
1 68798U 26088G   26249.84059036  .00002863  00000-0  18297-3 0  9999
2 68798  97.5176  37.5387 0019389 157.4446 202.7639 15.09277639 20616
CO-128
1 69912U 26156AV  26249.68682685  .00000847  00000-0  91451-4 0  9992
2 69912  97.7486 149.0468 0001511 332.9552  27.1587 14.90924556  9148
MARINA
1 69920U 26156BD  26249.70554624  .00001038  00000-0  10753-3 0  9993
2 69920  97.7454 149.1530 0006445 321.8184  38.2577 14.92135361  9155
IO-86
1 40931U          26199.45381863  .00000000  00000-0  77536-4 0    07
2 40931   6.0006 322.6653 0012733 338.8432 273.6875 14.79294310    03
LILIUM-4                
1 71922C 26067AC  26089.50133053 -.00014632  00000+0 -74472-3 0    04
2 71922  97.4497  49.1617 0004341   5.9603 355.7042 15.16896692    16
